GW1874 Weather Reports


time (UTC)temp
F
wind
direction
speed
knots
gust
knots
rain 1hr
in
rain 24hr
in
rain mn
in
humidity
%
barometer
mb
20260503200414 66 278 0.0 0.0 0.00 0.00 0.00 61 1017.0
20260503195911 64 331 0.0 0.0 0.00 0.00 0.00 66 1017.1
20260503195409 63 284 0.0 0.0 0.00 0.00 0.00 66 1017.1
20260503194905 64 4 0.0 0.0 0.00 0.00 0.00 66 1017.3
20260503194402 63 319 0.0 0.0 0.00 0.00 0.00 67 1017.2
20260503193858 62 317 0.0 0.0 0.00 0.00 0.00 67 1017.3
20260503193353 63 346 0.0 0.0 0.00 0.00 0.00 68 1017.2
20260503192849 63 311 0.0 0.0 0.00 0.00 0.00 65 1017.2
20260503192345 64 324 0.0 0.0 0.00 0.00 0.00 65 1017.1
20260503191842 64 327 0.0 0.0 0.00 0.00 0.00 63 1017.0
20260503191339 65 338 0.0 0.0 0.00 0.00 0.00 64 1017.3
20260503190835 64 326 0.0 0.0 0.00 0.00 0.00 65 1017.3
20260503190332 63 302 0.0 0.0 0.00 0.00 0.00 67 1017.2
20260503185829 63 312 0.0 0.0 0.00 0.00 0.00 66 1017.3
20260503185325 64 279 0.0 0.0 0.00 0.00 0.00 65 1017.5
20260503184820 63 330 0.0 0.0 0.00 0.00 0.00 67 1017.3
20260503184316 64 322 0.0 0.0 0.00 0.00 0.00 66 1017.2
20260503183812 65 304 0.0 0.0 0.00 0.00 0.00 64 1017.2
20260503183309 64 326 0.0 0.0 0.00 0.00 0.00 63 1017.2
20260503182807 64 302 0.0 0.0 0.00 0.00 0.00 65 1017.1
20260503182306 63 328 0.0 0.0 0.00 0.00 0.00 65 1017.0
20260503181803 64 310 0.0 0.0 0.00 0.00 0.00 66 1016.8
20260503181300 65 286 0.0 0.0 0.00 0.00 0.00 63 1017.0
20260503180756 64 287 0.0 0.0 0.00 0.00 0.00 64 1017.0
20260503180254 64 326 0.0 0.0 0.00 0.00 0.00 66 1017.0
20260503175750 63 316 0.0 0.0 0.00 0.00 0.00 67 1017.3
20260503175248 63 326 0.0 0.0 0.00 0.00 0.00 67 1017.0
20260503174744 63 325 0.0 0.0 0.00 0.00 0.00 67 1017.2
20260503174242 63 241 0.0 0.0 0.00 0.00 0.00 67 1017.0
20260503173742 63 227 0.0 0.0 0.00 0.00 0.00 67 1017.2
20260503173238 63 341 0.0 0.0 0.00 0.00 0.00 68 1017.0
20260503172735 62 340 0.0 0.0 0.00 0.00 0.00 68 1017.3
20260503172232 60 331 0.0 0.0 0.00 0.00 0.00 71 1017.1
20260503171729 61 313 0.0 0.0 0.00 0.00 0.00 70 1017.0
20260503171226 62 337 0.0 0.0 0.00 0.00 0.00 70 1017.0
20260503170723 60 330 0.0 0.0 0.00 0.00 0.00 72 1017.1
20260503170220 59 315 0.0 0.0 0.00 0.00 0.00 74 1017.1
20260503160142 58 324 0.0 0.0 0.00 0.00 0.00 76 1016.9
20260503150612 56 335 0.0 0.0 0.00 0.00 0.00 81 1016.3
20260503150108 55 327 0.0 0.0 0.00 0.00 0.00 80 1016.5
20260503131001 54 322 0.0 0.0 0.00 0.00 0.00 84 1015.1
20260503130459 54 340 0.0 0.0 0.00 0.00 0.00 85 1014.8
20260503110350 54 322 0.0 0.0 0.00 0.00 0.00 81 1015.0
20260503090235 54 326 0.0 0.0 0.00 0.00 0.00 83 1015.4
20260503081202 55 324 0.0 0.0 0.00 0.00 0.00 82 1015.9
20260503080658 55 324 0.0 0.0 0.00 0.00 0.00 83 1016.1
20260503080155 55 324 0.0 0.0 0.00 0.00 0.00 83 1015.8
20260503072632 55 316 0.0 0.0 0.00 0.00 0.00 83 1015.8
20260503072129 55 319 0.0 0.0 0.00 0.00 0.00 83 1016.0
20260503071626 55 326 0.0 0.0 0.00 0.00 0.00 83 1015.8
20260503071122 55 312 0.0 0.0 0.00 0.00 0.00 82 1015.9
20260503070619 54 330 0.0 0.0 0.00 0.00 0.00 83 1016.0
20260503070118 54 324 0.0 0.0 0.00 0.00 0.00 83 1015.8
20260503055038 55 323 0.0 0.0 0.00 0.00 0.00 83 1016.5
20260503054534 55 336 0.0 0.0 0.00 0.00 0.00 83 1016.5
20260503054031 55 328 0.0 0.0 0.00 0.00 0.00 83 1016.7
20260503053529 54 324 0.0 0.0 0.00 0.00 0.00 83 1016.7
20260503053027 54 324 0.0 0.0 0.00 0.00 0.00 84 1016.3
20260503052523 55 284 0.0 0.0 0.00 0.00 0.00 83 1016.5
20260503052019 55 324 0.0 0.0 0.00 0.00 0.00 84 1016.4
20260503051515 55 301 0.0 0.0 0.00 0.00 0.00 83 1016.4
20260503051013 55 331 0.0 0.0 0.00 0.00 0.00 84 1016.4
20260503050508 55 303 0.0 0.0 0.00 0.00 0.00 84 1016.3
20260503050006 55 320 0.0 0.0 0.00 0.00 0.00 84 1016.4
20260503045503 55 297 0.0 0.0 0.00 0.00 0.00 84 1016.3
20260503045000 55 315 0.0 0.0 0.00 0.00 0.00 84 1016.2
20260503044457 55 323 0.0 0.0 0.00 0.00 0.00 84 1016.3
20260503043955 55 323 0.0 0.0 0.00 0.00 0.00 84 1016.3
20260503043450 55 326 0.0 0.0 0.00 0.00 0.00 84 1016.4
20260503042947 55 326 0.0 0.0 0.00 0.00 0.00 84 1016.4
20260503042444 55 326 0.0 0.0 0.00 0.00 0.00 83 1016.3
20260503041941 55 315 0.0 0.0 0.00 0.00 0.00 84 1016.5
20260503041437 55 318 0.0 0.0 0.00 0.00 0.00 83 1016.5
20260503040935 55 320 0.0 0.0 0.00 0.00 0.00 83 1016.5
20260503040432 55 318 0.0 0.0 0.00 0.00 0.00 83 1016.2
20260503035929 55 313 0.0 0.0 0.00 0.00 0.00 83 1016.2
20260503035426 55 295 0.0 0.0 0.00 0.00 0.00 83 1016.0
20260503034924 55 319 0.0 0.0 0.00 0.00 0.00 82 1016.1
20260503034421 55 328 0.0 0.0 0.00 0.00 0.00 82 1016.0
20260503033918 55 308 0.0 0.0 0.00 0.00 0.00 82 1016.1
20260503033415 55 323 0.0 0.0 0.00 0.00 0.00 82 1015.9
20260503032913 55 324 0.0 0.0 0.00 0.00 0.00 82 1015.8
20260503032412 55 323 0.0 0.0 0.00 0.00 0.00 82 1015.6
20260503031909 55 327 0.0 0.0 0.00 0.00 0.00 82 1015.6
20260503031407 55 323 0.0 0.0 0.00 0.00 0.00 82 1015.5
20260503030903 55 308 0.0 0.0 0.00 0.00 0.00 81 1015.6
20260503030359 56 300 0.0 0.0 0.00 0.00 0.00 81 1015.6
20260503025856 56 326 0.0 0.0 0.00 0.00 0.00 81 1015.5
20260503025353 55 325 0.0 0.0 0.00 0.00 0.00 82 1015.4
20260503024850 55 6 0.0 0.0 0.00 0.00 0.00 81 1015.7
20260503024347 56 316 0.0 0.0 0.00 0.00 0.00 80 1015.5
20260503023844 56 309 0.0 0.0 0.00 0.00 0.00 82 1015.4
20260503023341 56 24 0.0 0.0 0.00 0.00 0.00 82 1015.4
20260503022837 56 324 0.0 0.0 0.00 0.00 0.00 81 1015.6
20260503022332 56 326 0.0 0.0 0.00 0.00 0.00 81 1015.4
20260503021829 56 324 0.0 0.0 0.00 0.00 0.00 81 1015.4
20260503021325 56 287 0.0 0.0 0.00 0.00 0.00 81 1015.6
20260503020823 56 354 0.0 0.0 0.00 0.00 0.00 80 1015.6
20260503020321 56 253 0.0 0.0 0.00 0.00 0.00 80 1015.7
20260503015817 56 318 0.0 0.0 0.00 0.00 0.00 81 1015.5
20260503015314 56 317 0.0 0.0 0.00 0.00 0.00 81 1015.6
20260503014809 56 129 0.0 0.0 0.00 0.00 0.00 80 1015.7
20260503014307 56 320 0.0 0.0 0.00 0.00 0.00 80 1015.7
20260503013804 57 322 0.0 0.0 0.00 0.00 0.00 79 1015.8
20260503013302 57 176 0.0 0.0 0.00 0.00 0.00 78 1015.7
20260503012759 57 318 0.0 0.0 0.00 0.00 0.00 78 1015.9
20260503012256 58 342 0.0 0.0 0.00 0.00 0.00 77 1015.8
20260503011753 58 330 0.0 0.0 0.00 0.00 0.00 77 1015.7
20260503011250 58 324 0.0 0.0 0.00 0.00 0.00 76 1016.0
20260503010746 58 322 0.0 0.0 0.00 0.00 0.00 76 1015.8
20260503010243 58 322 0.0 0.0 0.00 0.00 0.00 76 1016.0
20260503005740 58 308 0.0 0.0 0.00 0.00 0.00 75 1015.9
20260503005238 58 314 0.0 0.0 0.00 0.00 0.00 75 1015.9
20260503004733 59 310 0.0 0.0 0.00 0.00 0.00 74 1015.8
20260503004232 59 320 0.0 0.0 0.00 0.00 0.00 74 1015.9
20260503003729 59 321 0.0 0.0 0.00 0.00 0.00 73 1016.0
20260503003226 59 291 0.0 0.0 0.00 0.00 0.00 74 1016.0
20260503002722 59 328 0.0 0.0 0.00 0.00 0.00 73 1015.8
20260503002219 60 174 0.0 0.0 0.00 0.00 0.00 71 1015.9
20260503001715 60 324 0.0 0.0 0.00 0.00 0.00 71 1015.9
20260503001212 61 171 0.0 0.0 0.00 0.00 0.00 69 1015.8
20260503000710 62 345 0.0 0.0 0.00 0.00 0.00 70 1015.8
20260503000207 63 310 0.0 0.0 0.00 0.00 0.00 68 1016.0
20260502235704 62 341 0.0 0.0 0.00 0.00 0.00 70 1016.0
20260502235202 62 341 0.0 0.0 0.00 0.00 0.00 67 1015.8
20260502234658 62 338 0.0 0.0 0.00 0.00 0.00 69 1015.9
20260502234155 63 254 0.0 0.0 0.00 0.00 0.00 67 1016.0
20260502233651 64 325 0.0 0.0 0.00 0.00 0.00 66 1015.9
20260502233148 64 266 0.0 0.0 0.00 0.00 0.00 67 1016.0
20260502232644 64 321 0.0 0.0 0.00 0.00 0.00 65 1016.0
20260502232141 64 322 0.0 0.0 0.00 0.00 0.00 67 1016.1
20260502231638 64 353 0.0 0.0 0.00 0.00 0.00 66 1015.9
20260502231136 64 351 0.0 0.0 0.00 0.00 0.00 66 1016.1
20260502230634 64 301 0.0 0.0 0.00 0.00 0.00 65 1016.2
20260502230132 64 170 0.0 0.0 0.00 0.00 0.00 64 1016.3
20260502225627 65 264 0.0 0.0 0.00 0.00 0.00 64 1016.3
20260502225125 64 268 0.0 0.0 0.00 0.00 0.00 65 1016.7
20260502224621 64 339 0.0 0.0 0.00 0.00 0.00 65 1016.5
20260502224118 64 22 0.0 0.0 0.00 0.00 0.00 65 1016.7
20260502223615 65 188 0.0 0.0 0.00 0.00 0.00 65 1016.4
20260502223114 65 202 0.0 0.0 0.00 0.00 0.00 65 1016.9
20260502222611 65 345 0.0 0.0 0.00 0.00 0.00 67 1016.7
20260502222107 65 305 0.0 0.0 0.00 0.00 0.00 64 1016.9
20260502221603 66 289 0.0 0.0 0.00 0.00 0.00 65 1016.8
20260502221100 66 0 0.0 0.0 0.00 0.00 0.00 63 1016.8
20260502220556 66 25 0.0 0.0 0.00 0.00 0.00 63 1016.8
20260502220053 67 288 0.0 0.0 0.00 0.00 0.00 64 1016.9
20260502215550 66 302 0.0 0.0 0.00 0.00 0.00 66 1017.0
20260502215047 65 330 0.0 0.0 0.00 0.00 0.00 67 1017.0
20260502214544 64 322 0.0 0.0 0.00 0.00 0.00 69 1017.1
20260502214041 64 323 0.0 0.0 0.00 0.00 0.00 68 1017.2
20260502213538 66 329 0.0 0.0 0.00 0.00 0.00 67 1017.0
20260502213036 64 279 0.0 0.0 0.00 0.00 0.00 68 1017.0
20260502212534 65 256 0.0 0.0 0.00 0.00 0.00 69 1017.0
20260502212032 64 312 0.0 0.0 0.00 0.00 0.00 72 1017.3
20260502211527 63 321 0.0 0.0 0.00 0.00 0.00 72 1017.2
20260502211025 63 340 0.0 0.0 0.00 0.00 0.00 71 1017.3
20260502210521 63 286 0.0 0.0 0.00 0.00 0.00 71 1017.4
20260502210018 64 315 0.0 0.0 0.00 0.00 0.00 72 1017.4
20260502205515 64 314 0.0 0.0 0.00 0.00 0.00 71 1017.4
20260502205012 65 322 0.0 0.0 0.00 0.00 0.00 70 1017.3
20260502204509 65 292 0.0 0.0 0.00 0.00 0.00 69 1017.3
20260502204007 65 268 0.0 0.0 0.00 0.00 0.00 69 1017.5
20260502203503 65 322 0.0 0.0 0.00 0.00 0.00 70 1017.3
20260502203000 65 302 0.0 0.0 0.00 0.00 0.00 68 1017.3
20260502202456 66 328 0.0 0.0 0.00 0.00 0.00 69 1017.4
20260502201955 65 234 0.0 0.0 0.00 0.00 0.00 69 1017.5
20260502201450 66 337 0.0 0.0 0.00 0.00 0.00 69 1017.6
20260502200947 66 190 0.0 0.0 0.00 0.00 0.00 69 1017.6